,,,PA_Meas_PMT16A,,PR_Meas_QMR101_102,,RH_Meas_QMH101,,SR_Meas_QMS101,,TA_Meas_QMH101,,GenWind,,GenWind,
date,time,status,PA,status,PR,status,RH,status,SR,status,TA,status,DirAvg,status,SpdAvg,
2010-09-03, 00:00:04,VALID,1001.27,VALID,0,VALID,89.8998,VALID,0,VALID,24.0153,VALID,81,VALID,0.160547,
2010-09-03, 00:01:04,VALID,1001.22,VALID,0,VALID,89.9151,VALID,0,VALID,24.0134,VALID,81,VALID,0.110547,
2010-09-03, 00:02:04,VALID,1001.2,VALID,0,VALID,90.0066,VALID,0,VALID,24.0134,VALID,78,VALID,0.427344,
2010-09-03, 00:03:04,VALID,1001.18,VALID,0,VALID,89.9532,VALID,0,VALID,24.0329,VALID,316,VALID,0.730469,
2010-09-03, 00:04:04,VALID,1001.19,VALID,0,VALID,89.9837,VALID,0,VALID,24.0525,VALID,316,VALID,0.742578,
2010-09-03, 00:05:04,VALID,1001.18,VALID,0,VALID,90.0219,VALID,0,VALID,24.072,VALID,316,VALID,0.433594,
2010-09-03, 00:06:04,VALID,1001.2,VALID,0,VALID,89.9685,VALID,0,VALID,24.0915,VALID,316,VALID,0.610547,
2010-09-03, 00:07:04,VALID,1001.23,VALID,0,VALID,89.8693,VALID,0,VALID,24.0915,VALID,317,VALID,0.464844,
2010-09-03, 00:08:04,VALID,1001.24,VALID,0,VALID,89.6709,VALID,0,VALID,24.0915,VALID,325,VALID,0.430469,
2010-09-03, 00:09:04,VALID,1001.22,VALID,0,VALID,89.6404,VALID,0,VALID,24.0915,VALID,332,VALID,0.558594,
2010-09-03, 00:10:04,VALID,1001.23,VALID,0,VALID,89.4878,VALID,0,VALID,24.1305,VALID,332,VALID,0.401563,
2010-09-03, 00:11:04,VALID,1001.24,VALID,0,VALID,89.3505,VALID,0,VALID,24.1696,VALID,332,VALID,0.388672,
2010-09-03, 00:12:04,VALID,1001.24,VALID,0,VALID,89.3734,VALID,0,VALID,24.1696,VALID,332,VALID,0.430859,
2010-09-03, 00:13:04,VALID,1001.26,VALID,0,VALID,89.3657,VALID,0,VALID,24.15,VALID,332,VALID,0.558594,
2010-09-03, 00:14:04,VALID,1001.26,VALID,0,VALID,89.3734,VALID,0,VALID,24.1696,VALID,332,VALID,0.396484,
2010-09-03, 00:15:04,VALID,1001.26,VALID,0,VALID,89.6786,VALID,0,VALID,24.1696,VALID,24,VALID,0.729688,
2010-09-03, 00:16:04,VALID,1001.26,VALID,0,VALID,89.8159,VALID,0,VALID,24.1305,VALID,25,VALID,0.468359,
2010-09-03, 00:17:04,VALID,1001.22,VALID,0,VALID,90.0677,VALID,0,VALID,24.1305,VALID,25,VALID,0.350391,
2010-09-03, 00:18:04,VALID,1001.21,VALID,0,VALID,90.3042,VALID,0,VALID,24.1305,VALID,35,VALID,0.662891,
2010-09-03, 00:19:04,VALID,1001.2,VALID,0,VALID,90.4568,VALID,0,VALID,24.1305,VALID,48,VALID,0.665625,
2010-09-03, 00:20:04,VALID,1001.23,VALID,0,VALID,90.3728,VALID,0,VALID,24.1092,VALID,46,VALID,1.06094,
2010-09-03, 00:21:04,VALID,1001.21,VALID,0,VALID,90.2737,VALID,0,VALID,24.111,VALID,43,VALID,1.4,
2010-09-03, 00:22:04,VALID,1001.17,VALID,0,VALID,90.1363,VALID,0,VALID,24.072,VALID,44,VALID,1.53125,
2010-09-03, 00:23:04,VALID,1001.16,VALID,0,VALID,90.1821,VALID,0,VALID,24.0525,VALID,42,VALID,1.02031,
2010-09-03, 00:24:04,VALID,1001.13,VALID,0,VALID,90.2431,VALID,0,VALID,24.0329,VALID,40,VALID,0.603906,
2010-09-03, 00:25:04,VALID,1001.08,VALID,0,VALID,90.3118,VALID,0,VALID,24.0134,VALID,40,VALID,0.491797,
2010-09-03, 00:26:04,VALID,1001.06,VALID,0,VALID,90.266,VALID,0,VALID,23.9939,VALID,40,VALID,0.249609,
2010-09-03, 00:27:04,VALID,1001.05,VALID,0,VALID,90.1821,VALID,0,VALID,23.9531,VALID,40,VALID,0.257422,
2010-09-03, 00:28:04,VALID,1001.01,VALID,0,VALID,90.1287,VALID,0,VALID,23.9744,VALID,40,VALID,0.2375,
2010-09-03, 00:29:04,VALID,1001.02,VALID,0,VALID,90.0829,VALID,0,VALID,23.9549,VALID,40,VALID,0.214062,
2010-09-03, 00:30:04,VALID,1001.02,VALID,0,VALID,90.0829,VALID,0,VALID,23.9549,VALID,40,VALID,0.0046875,
2010-09-03, 00:31:04,VALID,1001.03,VALID,0,VALID,90.1516,VALID,0,VALID,23.9549,VALID,40,VALID,0,
2010-09-03, 00:32:04,VALID,1001.01,VALID,0,VALID,90.266,VALID,0,VALID,23.9744,VALID,40,VALID,0,
2010-09-03, 00:33:04,VALID,1000.99,VALID,0,VALID,90.2431,VALID,0,VALID,23.9744,VALID,40,VALID,0,
2010-09-03, 00:34:04,VALID,1000.98,VALID,0,VALID,90.0295,VALID,0,VALID,23.9549,VALID,40,VALID,0,
2010-09-03, 00:35:04,VALID,1001.02,VALID,0,VALID,90.1974,VALID,0,VALID,23.9744,VALID,40,VALID,0.0449219,
2010-09-03, 00:36:04,VALID,1001.01,VALID,0,VALID,90.1211,VALID,0,VALID,23.9939,VALID,57,VALID,0.334375,
2010-09-03, 00:37:04,VALID,1001.04,VALID,0,VALID,90.1974,VALID,0,VALID,24.0311,VALID,138,VALID,0.420312,
2010-09-03, 00:38:04,VALID,1001.03,VALID,0,VALID,90.1668,VALID,0,VALID,24.0506,VALID,137,VALID,0.424219,
2010-09-03, 00:39:04,VALID,1001.01,VALID,0,VALID,90.0677,VALID,0.112286,VALID,24.0897,VALID,137,VALID,0.448438,
2010-09-03, 00:40:04,VALID,1001.02,VALID,0,VALID,89.7243,VALID,0,VALID,24.1287,VALID,137,VALID,0.569141,
2010-09-03, 00:41:04,VALID,1000.99,VALID,0,VALID,89.5031,VALID,0,VALID,24.1482,VALID,137,VALID,0.422266,
2010-09-03, 00:42:04,VALID,1001,VALID,0,VALID,89.6328,VALID,0,VALID,24.2067,VALID,94,VALID,0.617578,
2010-09-03, 00:43:04,VALID,1000.99,VALID,0,VALID,88.8774,VALID,0,VALID,24.2067,VALID,65,VALID,0.951172,
2010-09-03, 00:44:04,VALID,1000.97,VALID,0,VALID,88.6486,VALID,0,VALID,24.2458,VALID,51,VALID,0.894141,
2010-09-03, 00:45:04,VALID,1000.97,VALID,0,VALID,88.9766,VALID,0,VALID,24.3043,VALID,33,VALID,0.8,
2010-09-03, 00:46:04,VALID,1000.97,VALID,0,VALID,89.2132,VALID,0.112286,VALID,24.3238,VALID,29,VALID,0.875391,
2010-09-03, 00:47:04,VALID,1000.94,VALID,0,VALID,89.4115,VALID,0,VALID,24.3238,VALID,29,VALID,1.17344,
2010-09-03, 00:48:04,VALID,1000.95,VALID,0,VALID,89.4039,VALID,0.112286,VALID,24.2848,VALID,38,VALID,2.22109,
2010-09-03, 00:49:04,VALID,1000.94,VALID,0,VALID,89.3352,VALID,0,VALID,24.2458,VALID,36,VALID,1.7332,
2010-09-03, 00:50:04,VALID,1000.9,VALID,0,VALID,89.0606,VALID,0,VALID,24.1872,VALID,39,VALID,1.39492,
2010-09-03, 00:51:04,VALID,1000.89,VALID,0,VALID,88.9385,VALID,0,VALID,24.1464,VALID,26,VALID,0.998438,
2010-09-03, 00:52:04,VALID,1000.9,VALID,0,VALID,89.1826,VALID,0,VALID,24.1482,VALID,38,VALID,1.03789,
2010-09-03, 00:53:04,VALID,1000.9,VALID,0,VALID,89.4191,VALID,0,VALID,24.1092,VALID,40,VALID,1.45352,
2010-09-03, 00:54:04,VALID,1000.9,VALID,0,VALID,89.648,VALID,0.112286,VALID,24.0897,VALID,31,VALID,1.24414,
2010-09-03, 00:55:04,VALID,1000.92,VALID,0,VALID,89.4878,VALID,0,VALID,24.0506,VALID,45,VALID,1.43203,
2010-09-03, 00:56:04,VALID,1000.88,VALID,0,VALID,89.3505,VALID,0,VALID,23.9921,VALID,53,VALID,1.27813,
2010-09-03, 00:57:04,VALID,1000.91,VALID,0,VALID,89.1979,VALID,0.112286,VALID,23.9921,VALID,62,VALID,1.27383,
2010-09-03, 00:58:04,VALID,1000.94,VALID,0,VALID,89.0148,VALID,0,VALID,23.9531,VALID,61,VALID,1.18594,
2010-09-03, 00:59:04,VALID,1001.05,VALID,0,VALID,88.7096,VALID,0.112286,VALID,23.9531,VALID,51,VALID,2.04219,
2010-09-03, 01:00:04,VALID,1001.22,VALID,0,VALID,89.2208,VALID,0.112286,VALID,23.9513,VALID,47,VALID,3.30234,
2010-09-03, 01:01:04,VALID,1001.32,VALID,0,VALID,89.0071,VALID,0.112286,VALID,23.9531,VALID,58,VALID,3.96484,
2010-09-03, 01:02:04,VALID,1001.27,VALID,0,VALID,88.3739,VALID,0.112286,VALID,23.9336,VALID,48,VALID,3.6832,
2010-09-03, 01:03:04,VALID,1001.26,VALID,0,VALID,84.292,VALID,0,VALID,24.0701,VALID,67,VALID,5.13477,
2010-09-03, 01:04:04,VALID,1001.2,VALID,0,VALID,80.2178,VALID,0,VALID,24.3824,VALID,70,VALID,5.41875,
2010-09-03, 01:05:04,VALID,1001.2,VALID,0,VALID,78.5698,VALID,0,VALID,24.6166,VALID,67,VALID,5.96211,
2010-09-03, 01:06:04,VALID,1001.2,VALID,0,VALID,79.6609,VALID,0.112286,VALID,24.6946,VALID,87,VALID,3.67422,
2010-09-03, 01:07:04,VALID,1001.19,VALID,0,VALID,80.3628,VALID,0,VALID,24.638,VALID,71,VALID,3.66016,
2010-09-03, 01:08:04,VALID,1001.17,VALID,0,VALID,79.9813,VALID,0,VALID,24.5989,VALID,61,VALID,3.66836,
2010-09-03, 01:09:04,VALID,1001.16,VALID,0,VALID,78.196,VALID,0,VALID,24.5599,VALID,60,VALID,4.8457,
2010-09-03, 01:10:04,VALID,1001.15,VALID,0,VALID,79.0123,VALID,0,VALID,24.5599,VALID,67,VALID,4.14336,
2010-09-03, 01:11:04,VALID,1001.16,VALID,0,VALID,78.5546,VALID,0,VALID,24.5013,VALID,67,VALID,4.72773,
2010-09-03, 01:12:04,VALID,1001.13,VALID,0,VALID,80.0957,VALID,0,VALID,24.3842,VALID,69,VALID,4.01133,
2010-09-03, 01:13:04,VALID,1001.08,VALID,0,VALID,79.3557,VALID,0,VALID,24.2671,VALID,71,VALID,5.86211,
2010-09-03, 01:14:04,VALID,1001.03,VALID,0,VALID,80.4925,VALID,0,VALID,24.1872,VALID,70,VALID,3.74414,
2010-09-03, 01:15:04,VALID,1001.01,VALID,0,VALID,80.6985,VALID,0,VALID,24.111,VALID,57,VALID,4.72227,
2010-09-03, 01:16:04,VALID,1001.02,VALID,0,VALID,81.8124,VALID,0,VALID,24.072,VALID,68,VALID,4.18437,
2010-09-03, 01:17:04,VALID,1001.01,VALID,0,VALID,81.5606,VALID,0,VALID,24.0329,VALID,82,VALID,3.93828,
2010-09-03, 01:18:04,VALID,1001,VALID,0.5,VALID,81.2478,VALID,0,VALID,23.9957,VALID,78,VALID,4.60938,
2010-09-03, 01:19:04,VALID,1000.97,VALID,0,VALID,80.9732,VALID,0,VALID,23.9762,VALID,88,VALID,4.80586,
2010-09-03, 01:20:04,VALID,1000.96,VALID,0,VALID,81.7514,VALID,0,VALID,23.9354,VALID,103,VALID,3.40117,
2010-09-03, 01:21:04,VALID,1001.02,VALID,0,VALID,81.3317,VALID,0,VALID,23.9567,VALID,111,VALID,4.44688,
2010-09-03, 01:22:04,VALID,1001.04,VALID,0,VALID,81.9192,VALID,0,VALID,23.9744,VALID,99,VALID,3.06641,
2010-09-03, 01:23:04,VALID,1001,VALID,0,VALID,82.3617,VALID,0,VALID,23.9159,VALID,106,VALID,3.03477,
2010-09-03, 01:24:04,VALID,1001.01,VALID,0,VALID,81.9116,VALID,0,VALID,23.8573,VALID,110,VALID,3.14102,
2010-09-03, 01:25:04,VALID,1001.05,VALID,0,VALID,81.6522,VALID,0,VALID,23.8573,VALID,98,VALID,3.39844,
2010-09-03, 01:26:04,VALID,1001.05,VALID,0,VALID,82.6593,VALID,0,VALID,23.8768,VALID,128,VALID,2.4168,
2010-09-03, 01:27:04,VALID,1001.04,VALID,0,VALID,82.026,VALID,0,VALID,23.8183,VALID,104,VALID,2.1418,
2010-09-03, 01:28:04,VALID,1001.04,VALID,0,VALID,82.9035,VALID,0,VALID,23.7988,VALID,105,VALID,1.68086,
2010-09-03, 01:29:04,VALID,1001.02,VALID,0,VALID,81.3165,VALID,0,VALID,23.7597,VALID,112,VALID,2.78672,
2010-09-03, 01:30:04,VALID,1001.04,VALID,0,VALID,81.9726,VALID,0,VALID,23.7988,VALID,106,VALID,2.37656,
2010-09-03, 01:31:04,VALID,1001.05,VALID,0,VALID,81.82,VALID,0,VALID,23.7988,VALID,113,VALID,2.1793,
2010-09-03, 01:32:04,VALID,1001.01,VALID,0,VALID,81.2478,VALID,0,VALID,23.7988,VALID,104,VALID,1.61992,
2010-09-03, 01:33:04,VALID,1001.02,VALID,0,VALID,81.4843,VALID,0,VALID,23.8183,VALID,88,VALID,1.95195,
2010-09-03, 01:34:04,VALID,1001.01,VALID,0,VALID,82.6974,VALID,0,VALID,23.8183,VALID,84,VALID,1.11445,
2010-09-03, 01:35:04,VALID,1000.97,VALID,0,VALID,83.4528,VALID,0,VALID,23.7384,VALID,68,VALID,1.48164,
2010-09-03, 01:36:04,VALID,1000.95,VALID,0,VALID,82.85,VALID,0,VALID,23.7207,VALID,45,VALID,1.14102,
2010-09-03, 01:37:04,VALID,1000.96,VALID,0,VALID,83.8419,VALID,0,VALID,23.6994,VALID,79,VALID,1.04492,
2010-09-03, 01:38:04,VALID,1000.97,VALID,0,VALID,84.1318,VALID,0,VALID,23.6622,VALID,60,VALID,1.74609,
2010-09-03, 01:39:04,VALID,1000.99,VALID,0,VALID,84.3378,VALID,0,VALID,23.6036,VALID,83,VALID,1.65469,
2010-09-03, 01:40:04,VALID,1000.98,VALID,0,VALID,85.2457,VALID,0,VALID,23.5451,VALID,95,VALID,0.370703,
2010-09-03, 01:41:04,VALID,1001.01,VALID,0,VALID,84.1089,VALID,0,VALID,23.4866,VALID,100,VALID,1.1918,
2010-09-03, 01:42:04,VALID,1001.02,VALID,0,VALID,83.0408,VALID,0,VALID,23.4653,VALID,117,VALID,2.68789,
2010-09-03, 01:43:04,VALID,1001.02,VALID,0,VALID,81.9345,VALID,0,VALID,23.5451,VALID,115,VALID,2.15781,
2010-09-03, 01:44:04,VALID,1001.04,VALID,0,VALID,83.7274,VALID,0,VALID,23.6036,VALID,150,VALID,1.41875,
2010-09-03, 01:45:04,VALID,1001.03,VALID,0.5,VALID,84.2615,VALID,0,VALID,23.6036,VALID,158,VALID,1.48516,
2010-09-03, 01:46:04,VALID,1001.07,VALID,0,VALID,84.0479,VALID,0,VALID,23.6036,VALID,164,VALID,2.2543,
2010-09-03, 01:47:04,VALID,1001.05,VALID,0,VALID,85.8485,VALID,0,VALID,23.6036,VALID,168,VALID,2.35742,
2010-09-03, 01:48:04,VALID,1001.05,VALID,0,VALID,85.9019,VALID,0,VALID,23.5841,VALID,185,VALID,2.15195,
2010-09-03, 01:49:04,VALID,1001.06,VALID,0,VALID,85.406,VALID,0,VALID,23.5841,VALID,182,VALID,2.41211,
2010-09-03, 01:50:04,VALID,1001.09,VALID,0,VALID,85.8561,VALID,0,VALID,23.6036,VALID,186,VALID,2.40469,
2010-09-03, 01:51:04,VALID,1001.11,VALID,0,VALID,85.0932,VALID,0,VALID,23.6232,VALID,185,VALID,2.86094,
2010-09-03, 01:52:04,VALID,1001.11,VALID,0,VALID,85.9553,VALID,0,VALID,23.6427,VALID,177,VALID,2.65352,
2010-09-03, 01:53:04,VALID,1001.15,VALID,0,VALID,86.4817,VALID,0,VALID,23.6214,VALID,167,VALID,2.24727,
2010-09-03, 01:54:04,VALID,1001.14,VALID,0,VALID,86.9319,VALID,0,VALID,23.6019,VALID,170,VALID,1.84648,
2010-09-03, 01:55:04,VALID,1001.13,VALID,0,VALID,86.085,VALID,0,VALID,23.5646,VALID,172,VALID,1.74258,
2010-09-03, 01:56:04,VALID,1001.14,VALID,0,VALID,86.4665,VALID,0,VALID,23.5859,VALID,152,VALID,1.50781,
2010-09-03, 01:57:04,VALID,1001.12,VALID,0,VALID,86.1994,VALID,0,VALID,23.5469,VALID,149,VALID,1.42656,
2010-09-03, 01:58:04,VALID,1001.09,VALID,0,VALID,86.0926,VALID,0,VALID,23.4866,VALID,140,VALID,1.37734,
2010-09-03, 01:59:04,VALID,1001.1,VALID,0,VALID,86.3749,VALID,0,VALID,23.428,VALID,144,VALID,1.85703,
2010-09-03, 02:00:04,VALID,1001.06,VALID,0.5,VALID,86.2757,VALID,0,VALID,23.389,VALID,139,VALID,1.77656,
2010-09-03, 02:01:04,VALID,1001.07,VALID,0,VALID,87.3515,VALID,0,VALID,23.3518,VALID,153,VALID,1.36016,
2010-09-03, 02:02:04,VALID,1001.07,VALID,0,VALID,86.8403,VALID,0,VALID,23.2719,VALID,139,VALID,2.4957,
2010-09-03, 02:03:04,VALID,1001.05,VALID,0,VALID,86.3902,VALID,0,VALID,23.2719,VALID,145,VALID,2.54531,
2010-09-03, 02:04:04,VALID,1001.01,VALID,0,VALID,86.8861,VALID,0,VALID,23.2719,VALID,149,VALID,1.9375,
2010-09-03, 02:05:04,VALID,1000.98,VALID,0.5,VALID,87.7788,VALID,0,VALID,23.2329,VALID,138,VALID,1.32578,
2010-09-03, 02:06:04,VALID,1000.95,VALID,0,VALID,88.5112,VALID,0,VALID,23.1744,VALID,145,VALID,1.0918,
2010-09-03, 02:07:04,VALID,1000.93,VALID,0,VALID,88.763,VALID,0,VALID,23.1159,VALID,141,VALID,1.48789,
2010-09-03, 02:08:04,VALID,1000.9,VALID,0,VALID,88.557,VALID,0,VALID,23.0573,VALID,133,VALID,1.35469,
2010-09-03, 02:09:04,VALID,1000.9,VALID,0,VALID,88.8393,VALID,0,VALID,23.0378,VALID,130,VALID,1.18711,
2010-09-03, 02:10:04,VALID,1000.9,VALID,0,VALID,89.1216,VALID,0,VALID,23.0183,VALID,136,VALID,1.46836,
2010-09-03, 02:11:04,VALID,1000.9,VALID,0,VALID,89.0758,VALID,0,VALID,22.9793,VALID,128,VALID,1.20625,
2010-09-03, 02:12:04,VALID,1000.9,VALID,0,VALID,89.6328,VALID,0,VALID,22.9598,VALID,119,VALID,0.993359,
2010-09-03, 02:13:04,VALID,1000.85,VALID,0.5,VALID,89.526,VALID,0,VALID,22.9208,VALID,92,VALID,1.04414,
2010-09-03, 02:14:04,VALID,1000.83,VALID,0,VALID,89.854,VALID,0,VALID,22.9013,VALID,93,VALID,0.809375,
2010-09-03, 02:15:04,VALID,1000.82,VALID,0,VALID,90.0295,VALID,0,VALID,22.8623,VALID,100,VALID,0.692578,
2010-09-03, 02:16:04,VALID,1000.83,VALID,0,VALID,90.0448,VALID,0,VALID,22.8232,VALID,99,VALID,1.14258,
2010-09-03, 02:17:04,VALID,1000.83,VALID,0,VALID,90.1745,VALID,0,VALID,22.8037,VALID,82,VALID,0.869141,
2010-09-03, 02:18:04,VALID,1000.83,VALID,0,VALID,90.3042,VALID,0,VALID,22.7842,VALID,108,VALID,0.783984,
2010-09-03, 02:19:04,VALID,1000.81,VALID,0,VALID,90.3805,VALID,0,VALID,22.7647,VALID,118,VALID,0.655469,
2010-09-03, 02:20:04,VALID,1000.78,VALID,0,VALID,90.2431,VALID,0,VALID,22.7664,VALID,107,VALID,1.20391,
2010-09-03, 02:21:04,VALID,1000.75,VALID,0,VALID,90.3957,VALID,0,VALID,22.7647,VALID,114,VALID,1.15898,
2010-09-03, 02:22:04,VALID,1000.72,VALID,0,VALID,90.1287,VALID,0,VALID,22.7647,VALID,120,VALID,0.998828,
2010-09-03, 02:23:04,VALID,1000.72,VALID,0,VALID,90.2355,VALID,0,VALID,22.8037,VALID,124,VALID,1.10938,
2010-09-03, 02:24:04,VALID,1000.71,VALID,0,VALID,89.8464,VALID,0,VALID,22.8037,VALID,123,VALID,1.48359,
2010-09-03, 02:25:04,VALID,1000.72,VALID,0,VALID,90.0753,VALID,0,VALID,22.8232,VALID,124,VALID,0.822266,
2010-09-03, 02:26:04,VALID,1000.66,VALID,0,VALID,90.3652,VALID,0,VALID,22.8232,VALID,131,VALID,0.85625,
2010-09-03, 02:27:04,VALID,1000.64,VALID,0,VALID,90.1516,VALID,0,VALID,22.8232,VALID,145,VALID,1.02305,
2010-09-03, 02:28:04,VALID,1000.61,VALID,0,VALID,89.9761,VALID,0,VALID,22.8427,VALID,153,VALID,1.05898,
2010-09-03, 02:29:04,VALID,1000.58,VALID,0,VALID,90.2737,VALID,0,VALID,22.8818,VALID,158,VALID,1.08672,
2010-09-03, 02:30:04,VALID,1000.56,VALID,0,VALID,90.3576,VALID,0,VALID,22.9225,VALID,179,VALID,1.11523,
2010-09-03, 02:31:04,VALID,1000.54,VALID,0,VALID,90.5026,VALID,0,VALID,22.9793,VALID,210,VALID,1.38594,
2010-09-03, 02:32:04,VALID,1000.52,VALID,0,VALID,90.4568,VALID,0,VALID,23.0183,VALID,219,VALID,1.75039,
2010-09-03, 02:33:04,VALID,1000.46,VALID,0,VALID,90.6246,VALID,0,VALID,23.0378,VALID,225,VALID,1.48906,
2010-09-03, 02:34:04,VALID,1000.45,VALID,0.5,VALID,90.6857,VALID,0,VALID,23.0396,VALID,225,VALID,2.05547,
2010-09-03, 02:35:04,VALID,1000.41,VALID,0,VALID,90.762,VALID,0,VALID,22.9793,VALID,233,VALID,1.34883,
2010-09-03, 02:36:04,VALID,1000.4,VALID,0,VALID,90.9603,VALID,0,VALID,22.9793,VALID,220,VALID,1.37227,
2010-09-03, 02:37:04,VALID,1000.37,VALID,0,VALID,91.0595,VALID,0,VALID,22.9598,VALID,233,VALID,1.11094,
2010-09-03, 02:38:04,VALID,1000.33,VALID,0,VALID,91.2121,VALID,0,VALID,22.9403,VALID,235,VALID,0.680859,
2010-09-03, 02:39:04,VALID,1000.31,VALID,0,VALID,91.3952,VALID,0,VALID,22.9208,VALID,237,VALID,0.426953,
2010-09-03, 02:40:04,VALID,1000.26,VALID,0,VALID,91.5402,VALID,0,VALID,22.9208,VALID,237,VALID,0.329688,
2010-09-03, 02:41:04,VALID,1000.24,VALID,0,VALID,91.6317,VALID,0,VALID,22.9013,VALID,288,VALID,0.586719,
2010-09-03, 02:42:04,VALID,1000.2,VALID,0,VALID,91.6851,VALID,0,VALID,22.8818,VALID,301,VALID,0.586719,
2010-09-03, 02:43:04,VALID,1000.16,VALID,0,VALID,91.708,VALID,0,VALID,22.864,VALID,301,VALID,0.691016,
2010-09-03, 02:44:04,VALID,1000.14,VALID,0,VALID,91.8072,VALID,0,VALID,22.8427,VALID,301,VALID,0.623828,
2010-09-03, 02:45:04,VALID,1000.15,VALID,0,VALID,91.853,VALID,0,VALID,22.8232,VALID,301,VALID,0.666797,
2010-09-03, 02:46:04,VALID,1000.11,VALID,0,VALID,91.9217,VALID,0,VALID,22.8427,VALID,298,VALID,0.553125,
2010-09-03, 02:47:04,VALID,1000.11,VALID,0,VALID,91.9751,VALID,0,VALID,22.8445,VALID,258,VALID,0.850781,
2010-09-03, 02:48:04,VALID,1000.1,VALID,0,VALID,92.0209,VALID,0,VALID,22.8232,VALID,266,VALID,0.771875,
2010-09-03, 02:49:04,VALID,1000.09,VALID,0,VALID,92.0514,VALID,0,VALID,22.8427,VALID,254,VALID,0.610547,
2010-09-03, 02:50:04,VALID,1000.06,VALID,0,VALID,92.0895,VALID,0,VALID,22.8427,VALID,224,VALID,0.85625,
2010-09-03, 02:51:04,VALID,1000.11,VALID,0,VALID,92.1963,VALID,0,VALID,22.8623,VALID,210,VALID,0.909375,
2010-09-03, 02:52:04,VALID,1000.08,VALID,0,VALID,92.2574,VALID,0,VALID,22.8623,VALID,238,VALID,0.8,
2010-09-03, 02:53:04,VALID,1000.09,VALID,0,VALID,92.2497,VALID,0,VALID,22.8818,VALID,238,VALID,0.768359,
2010-09-03, 02:54:04,VALID,1000.06,VALID,0,VALID,92.2879,VALID,0,VALID,22.8818,VALID,238,VALID,0.355078,
2010-09-03, 02:55:04,VALID,1000.05,VALID,0,VALID,92.3413,VALID,0,VALID,22.8818,VALID,238,VALID,0.218359,
2010-09-03, 02:56:04,VALID,1000.05,VALID,0,VALID,92.3871,VALID,0,VALID,22.8818,VALID,238,VALID,0.474609,
2010-09-03, 02:57:04,VALID,1000.06,VALID,0,VALID,92.41,VALID,0,VALID,22.8623,VALID,238,VALID,0.416797,
2010-09-03, 02:58:04,VALID,1000.09,VALID,0,VALID,92.4557,VALID,0,VALID,22.8623,VALID,238,VALID,0.360156,
2010-09-03, 02:59:04,VALID,1000.06,VALID,0,VALID,92.4939,VALID,0,VALID,22.8623,VALID,238,VALID,0.222656,
2010-09-03, 03:00:04,VALID,1000.06,VALID,0,VALID,92.5244,VALID,0,VALID,22.8427,VALID,238,VALID,0.285937,
2010-09-03, 03:01:04,VALID,1000.04,VALID,0,VALID,92.5702,VALID,0,VALID,22.8623,VALID,238,VALID,0.225781,
2010-09-03, 03:02:04,VALID,1000.04,VALID,0,VALID,92.6465,VALID,0,VALID,22.8427,VALID,238,VALID,0.225391,
2010-09-03, 03:03:04,VALID,1000.06,VALID,0,VALID,92.677,VALID,0,VALID,22.8215,VALID,238,VALID,0,
2010-09-03, 03:04:04,VALID,1000.05,VALID,0,VALID,92.7228,VALID,0,VALID,22.8427,VALID,238,VALID,0.0738281,
2010-09-03, 03:05:04,VALID,1000.07,VALID,0,VALID,92.7762,VALID,0,VALID,22.8427,VALID,238,VALID,0.009375,
2010-09-03, 03:06:04,VALID,1000.03,VALID,0,VALID,92.8448,VALID,0,VALID,22.8427,VALID,238,VALID,0.21875,
2010-09-03, 03:07:04,VALID,1000.04,VALID,0,VALID,92.8906,VALID,0,VALID,22.8623,VALID,238,VALID,0.294531,
2010-09-03, 03:08:04,VALID,1000.04,VALID,0,VALID,92.9364,VALID,0,VALID,22.8818,VALID,238,VALID,0.344531,
2010-09-03, 03:09:04,VALID,999.984,VALID,0,VALID,92.9517,VALID,0,VALID,22.9013,VALID,246,VALID,0.666406,
2010-09-03, 03:10:04,VALID,999.969,VALID,0,VALID,92.9745,VALID,0,VALID,22.9403,VALID,253,VALID,0.4,
2010-09-03, 03:11:04,VALID,999.985,VALID,0,VALID,92.9822,VALID,0,VALID,22.9598,VALID,253,VALID,0.290625,
2010-09-03, 03:12:04,VALID,999.979,VALID,0,VALID,92.944,VALID,0,VALID,22.9793,VALID,253,VALID,0.0539063,
2010-09-03, 03:13:04,VALID,999.971,VALID,0,VALID,92.9364,VALID,0,VALID,22.9793,VALID,253,VALID,0,
2010-09-03, 03:14:04,VALID,999.987,VALID,0,VALID,92.9211,VALID,0,VALID,22.9598,VALID,253,VALID,0,
2010-09-03, 03:15:04,VALID,1000.01,VALID,0,VALID,92.9364,VALID,0,VALID,22.9598,VALID,253,VALID,0.0148437,
2010-09-03, 03:16:04,VALID,1000,VALID,0,VALID,92.9288,VALID,0,VALID,22.9403,VALID,253,VALID,0.305078,
2010-09-03, 03:17:04,VALID,999.989,VALID,0,VALID,92.9364,VALID,0,VALID,22.9403,VALID,253,VALID,0.280469,
2010-09-03, 03:18:04,VALID,1000.01,VALID,0,VALID,92.9364,VALID,0,VALID,22.9208,VALID,267,VALID,0.578516,
2010-09-03, 03:19:04,VALID,999.974,VALID,0,VALID,92.8983,VALID,0,VALID,22.9013,VALID,4,VALID,0.985156,
2010-09-03, 03:20:04,VALID,999.98,VALID,0,VALID,92.9135,VALID,0,VALID,22.8818,VALID,6,VALID,0.991406,
2010-09-03, 03:21:04,VALID,999.975,VALID,0,VALID,92.9211,VALID,0,VALID,22.8427,VALID,21,VALID,1.06602,
2010-09-03, 03:22:04,VALID,999.995,VALID,0,VALID,92.8983,VALID,0,VALID,22.8037,VALID,40,VALID,1.34297,
2010-09-03, 03:23:04,VALID,999.967,VALID,0,VALID,92.9211,VALID,0,VALID,22.8037,VALID,56,VALID,1.50977,
2010-09-03, 03:24:04,VALID,999.973,VALID,0,VALID,92.9898,VALID,0,VALID,22.8037,VALID,47,VALID,1.07031,
2010-09-03, 03:25:04,VALID,999.976,VALID,0,VALID,93.0203,VALID,0,VALID,22.8037,VALID,47,VALID,0.622266,
2010-09-03, 03:26:04,VALID,999.973,VALID,0,VALID,93.0737,VALID,0,VALID,22.8037,VALID,47,VALID,0.544531,
2010-09-03, 03:27:04,VALID,999.945,VALID,0,VALID,93.0814,VALID,0,VALID,22.8037,VALID,28,VALID,0.891797,
2010-09-03, 03:28:04,VALID,999.953,VALID,0,VALID,93.0585,VALID,0,VALID,22.7647,VALID,10,VALID,1.30859,
2010-09-03, 03:29:04,VALID,999.932,VALID,0,VALID,92.9822,VALID,0,VALID,22.7257,VALID,23,VALID,1.2832,
2010-09-03, 03:30:04,VALID,999.931,VALID,0,VALID,92.9822,VALID,0,VALID,22.685,VALID,52,VALID,1.4332,
2010-09-03, 03:31:04,VALID,999.928,VALID,0,VALID,92.9517,VALID,0,VALID,22.6655,VALID,58,VALID,1.92578,
2010-09-03, 03:32:04,VALID,999.936,VALID,0,VALID,92.9364,VALID,0,VALID,22.646,VALID,58,VALID,1.48398,
2010-09-03, 03:33:04,VALID,999.892,VALID,0,VALID,92.8906,VALID,0,VALID,22.6477,VALID,51,VALID,1.51836,
2010-09-03, 03:34:04,VALID,999.933,VALID,0,VALID,92.8448,VALID,0,VALID,22.6282,VALID,43,VALID,1.40352,
2010-09-03, 03:35:04,VALID,999.911,VALID,0,VALID,92.7991,VALID,0,VALID,22.6282,VALID,43,VALID,1.23711,
2010-09-03, 03:36:04,VALID,999.929,VALID,0,VALID,92.7762,VALID,0,VALID,22.5892,VALID,42,VALID,1.55,
2010-09-03, 03:37:04,VALID,999.924,VALID,0,VALID,92.7762,VALID,0,VALID,22.5892,VALID,36,VALID,1.38711,
2010-09-03, 03:38:04,VALID,999.909,VALID,0,VALID,92.7762,VALID,0,VALID,22.5484,VALID,29,VALID,1.57656,
2010-09-03, 03:39:04,VALID,999.946,VALID,0,VALID,92.7762,VALID,0,VALID,22.5289,VALID,40,VALID,1.27148,
2010-09-03, 03:40:04,VALID,999.943,VALID,0,VALID,92.8296,VALID,0,VALID,22.5306,VALID,54,VALID,1.19375,
2010-09-03, 03:41:04,VALID,999.949,VALID,0,VALID,92.8906,VALID,0,VALID,22.5306,VALID,48,VALID,1.67891,
2010-09-03, 03:42:04,VALID,999.957,VALID,0,VALID,92.883,VALID,0,VALID,22.4916,VALID,52,VALID,1.27813,
2010-09-03, 03:43:04,VALID,999.947,VALID,0,VALID,92.8372,VALID,0,VALID,22.4916,VALID,52,VALID,1.71875,
2010-09-03, 03:44:04,VALID,999.985,VALID,0,VALID,92.7991,VALID,0,VALID,22.4916,VALID,44,VALID,1.54727,
2010-09-03, 03:45:04,VALID,999.978,VALID,0,VALID,92.7075,VALID,0,VALID,22.4509,VALID,44,VALID,1.47344,
2010-09-03, 03:46:04,VALID,999.983,VALID,0,VALID,92.7228,VALID,0,VALID,22.4916,VALID,58,VALID,1.31992,